| time (UTC) | temp F | wind direction | speed knots | gust knots | rain 1hr in | rain 24hr in | rain mn in | humidity % | barometer mb |
| 20260505041506 | 60 | 235 | 0.9 | 2.6 | 0.00 | 0.31 | 0.31 | 69 | 1001.4 |
| 20260505041006 | 61 | 228 | 0.9 | 3.5 | 0.00 | 0.31 | 0.31 | 70 | 1001.4 |
| 20260505040506 | 61 | 227 | 0.9 | 3.5 | 0.00 | 0.31 | 0.31 | 69 | 1001.4 |
| 20260505035506 | 61 | 213 | 0.0 | 2.6 | 0.01 | 0.31 | 0.31 | 69 | 1001.3 |
| 20260505035005 | 61 | 213 | 0.0 | 2.6 | 0.01 | 0.31 | 0.31 | 70 | 1001.4 |
| 20260505034506 | 61 | 212 | 0.0 | 1.7 | 0.01 | 0.31 | 0.31 | 70 | 1001.5 |
| 20260505034006 | 61 | 212 | 0.9 | 3.5 | 0.01 | 0.31 | 0.31 | 70 | 1001.5 |
| 20260505033505 | 61 | 212 | 0.9 | 3.5 | 0.01 | 0.31 | 0.31 | 70 | 1001.3 |
| 20260505033006 | 61 | 211 | 0.9 | 3.5 | 0.01 | 0.31 | 0.31 | 70 | 1001.3 |
| 20260505032505 | 61 | 212 | 0.9 | 4.3 | 0.01 | 0.31 | 0.31 | 70 | 1001.1 |
| 20260505032006 | 61 | 212 | 0.0 | 2.6 | 0.01 | 0.31 | 0.31 | 71 | 1000.8 |
| 20260505031506 | 61 | 212 | 0.9 | 2.6 | 0.01 | 0.31 | 0.31 | 71 | 1000.8 |
| 20260505031006 | 61 | 212 | 0.9 | 3.5 | 0.01 | 0.31 | 0.31 | 72 | 1000.7 |
| 20260505030505 | 61 | 210 | 0.0 | 3.5 | 0.02 | 0.31 | 0.31 | 72 | 1000.7 |
| 20260505030010 | 61 | 202 | 0.0 | 3.5 | 0.02 | 0.31 | 0.31 | 72 | 1000.8 |
| 20260505025506 | 61 | 276 | 0.9 | 3.5 | 0.01 | 0.30 | 0.30 | 72 | 1001.0 |
| 20260505025006 | 61 | 276 | 1.7 | 6.1 | 0.01 | 0.30 | 0.30 | 73 | 1001.2 |
| 20260505024505 | 61 | 223 | 0.9 | 6.1 | 0.02 | 0.30 | 0.30 | 71 | 1001.1 |
| 20260505024006 | 61 | 209 | 0.9 | 2.6 | 0.02 | 0.30 | 0.30 | 72 | 1000.9 |
| 20260505023505 | 61 | 236 | 0.9 | 2.6 | 0.02 | 0.30 | 0.30 | 72 | 1000.8 |
| 20260505023005 | 61 | 232 | 0.0 | 2.6 | 0.03 | 0.30 | 0.30 | 72 | 1000.3 |
| 20260505022506 | 61 | 235 | 0.0 | 3.5 | 0.03 | 0.30 | 0.30 | 73 | 1000.2 |
| 20260505022012 | 61 | 235 | 0.0 | 3.5 | 0.04 | 0.30 | 0.30 | 72 | 1000.1 |
| 20260505021506 | 61 | 215 | 0.0 | 2.6 | 0.04 | 0.30 | 0.30 | 72 | 999.9 |
| 20260505021009 | 61 | 215 | 0.0 | 2.6 | 0.04 | 0.30 | 0.30 | 72 | 999.8 |
| 20260505020505 | 61 | 229 | 0.0 | 2.6 | 0.04 | 0.29 | 0.29 | 74 | 999.6 |
| 20260505020008 | 62 | 229 | 0.9 | 3.5 | 0.05 | 0.29 | 0.29 | 73 | 999.5 |
| 20260505015505 | 62 | 230 | 0.9 | 4.3 | 0.05 | 0.29 | 0.29 | 73 | 999.5 |
| 20260505014505 | 62 | 234 | 0.9 | 4.3 | 0.06 | 0.28 | 0.28 | 74 | 999.5 |
| 20260505014012 | 62 | 215 | 0.9 | 4.3 | 0.07 | 0.28 | 0.28 | 74 | 999.4 |
| 20260505013504 | 62 | 220 | 1.7 | 6.1 | 0.07 | 0.28 | 0.28 | 75 | 999.3 |
| 20260505013010 | 62 | 238 | 1.7 | 6.1 | 0.07 | 0.27 | 0.27 | 74 | 999.3 |
| 20260505012505 | 62 | 221 | 1.7 | 6.1 | 0.08 | 0.27 | 0.27 | 75 | 999.3 |
| 20260505012007 | 62 | 228 | 1.7 | 7.0 | 0.08 | 0.26 | 0.26 | 75 | 999.3 |
| 20260505011509 | 62 | 247 | 0.9 | 7.0 | 0.09 | 0.26 | 0.26 | 75 | 999.1 |
| 20260505011018 | 62 | 210 | 0.9 | 7.8 | 0.10 | 0.25 | 0.25 | 77 | 998.8 |
| 20260505010505 | 62 | 236 | 0.9 | 7.0 | 0.11 | 0.25 | 0.25 | 78 | 998.8 |
| 20260505010009 | 62 | 197 | 0.9 | 3.5 | 0.11 | 0.24 | 0.24 | 79 | 998.7 |
| 20260505005506 | 62 | 225 | 0.9 | 7.0 | 0.12 | 0.24 | 0.24 | 79 | 998.9 |
| 20260505005014 | 61 | 232 | 1.7 | 7.0 | 0.12 | 0.23 | 0.23 | 80 | 998.8 |
| 20260505004506 | 61 | 213 | 0.9 | 7.0 | 0.12 | 0.22 | 0.22 | 81 | 998.8 |
| 20260505003014 | 61 | 198 | 0.0 | 2.6 | 0.12 | 0.20 | 0.20 | 84 | 998.1 |
| 20260505002006 | 61 | 198 | 0.9 | 2.6 | 0.13 | 0.18 | 0.18 | 82 | 998.2 |
| 20260505001505 | 61 | 198 | 0.9 | 2.6 | 0.15 | 0.17 | 0.17 | 82 | 998.2 |
| 20260505001012 | 60 | 202 | 0.0 | 3.5 | 0.15 | 0.15 | 0.15 | 84 | 998.4 |
| 20260505000009 | 60 | 53 | 0.0 | 0.9 | 0.13 | 0.13 | 0.13 | 89 | 998.5 |
| 20260504235506 | 60 | 49 | 0.0 | 0.0 | 0.12 | 0.12 | 0.12 | 90 | 998.2 |
| 20260504235009 | 59 | 49 | 0.0 | 0.0 | 0.11 | 0.11 | 0.11 | 90 | 998.0 |
| 20260504234505 | 59 | 49 | 0.0 | 0.9 | 0.10 | 0.10 | 0.10 | 89 | 998.0 |
| 20260504234007 | 59 | 49 | 0.0 | 0.9 | 0.10 | 0.10 | 0.10 | 88 | 998.1 |
| 20260504233505 | 59 | 49 | 0.0 | 0.9 | 0.09 | 0.09 | 0.09 | 86 | 998.3 |
| 20260504233006 | 59 | 49 | 0.0 | 2.6 | 0.08 | 0.08 | 0.08 | 83 | 998.4 |
| 20260504232506 | 60 | 49 | 1.7 | 5.2 | 0.07 | 0.07 | 0.07 | 79 | 998.6 |
| 20260504232005 | 63 | 46 | 4.3 | 13.0 | 0.05 | 0.05 | 0.05 | 74 | 999.2 |
| 20260504231505 | 67 | 306 | 4.3 | 15.6 | 0.02 | 0.02 | 0.02 | 67 | 999.4 |
| 20260504231006 | 71 | 282 | 0.9 | 11.3 | 0.00 | 0.00 | 0.00 | 55 | 998.4 |
| 20260504230506 | 71 | 270 | 0.9 | 4.3 | 0.00 | 0.00 | 0.00 | 53 | 997.9 |
| 20260504225505 | 72 | 240 | 0.9 | 3.5 | 0.00 | 0.00 | 0.00 | 50 | 997.7 |
| 20260504225006 | 72 | 208 | 0.9 | 5.2 | 0.00 | 0.00 | 0.00 | 50 | 997.7 |
| 20260504224505 | 72 | 234 | 1.7 | 7.8 | 0.00 | 0.00 | 0.00 | 50 | 997.9 |
| 20260504224007 | 73 | 232 | 1.7 | 5.2 | 0.00 | 0.00 | 0.00 | 48 | 998.0 |
| 20260504223006 | 76 | 234 | 2.6 | 11.3 | 0.00 | 0.00 | 0.00 | 44 | 998.2 |
| 20260504222505 | 77 | 160 | 2.6 | 12.2 | 0.00 | 0.00 | 0.00 | 42 | 998.1 |
| 20260504222006 | 77 | 203 | 1.7 | 8.7 | 0.00 | 0.00 | 0.00 | 42 | 998.1 |
| 20260504221505 | 76 | 238 | 2.6 | 6.1 | 0.00 | 0.00 | 0.00 | 41 | 998.1 |
| 20260504220008 | 79 | 196 | 2.6 | 7.0 | 0.00 | 0.00 | 0.00 | 37 | 997.9 |
| 20260504215505 | 80 | 229 | 1.7 | 8.7 | 0.00 | 0.00 | 0.00 | 36 | 997.9 |
| 20260504215006 | 80 | 246 | 0.9 | 4.3 | 0.00 | 0.00 | 0.00 | 36 | 997.9 |
| 20260504214505 | 81 | 212 | 1.7 | 12.2 | 0.00 | 0.00 | 0.00 | 35 | 998.0 |
| 20260504214006 | 81 | 197 | 2.6 | 12.2 | 0.00 | 0.00 | 0.00 | 35 | 998.1 |
| 20260504213504 | 81 | 218 | 2.6 | 9.6 | 0.00 | 0.00 | 0.00 | 35 | 998.1 |
| 20260504213008 | 81 | 246 | 2.6 | 9.6 | 0.00 | 0.00 | 0.00 | 35 | 998.1 |
| 20260504212507 | 80 | 240 | 2.6 | 10.4 | 0.00 | 0.00 | 0.00 | 35 | 998.2 |
| 20260504212009 | 79 | 228 | 2.6 | 10.4 | 0.00 | 0.00 | 0.00 | 35 | 998.3 |
| 20260504211506 | 80 | 205 | 2.6 | 9.6 | 0.00 | 0.00 | 0.00 | 38 | 998.4 |
| 20260504211008 | 79 | 279 | 2.6 | 9.6 | 0.00 | 0.00 | 0.00 | 34 | 998.4 |
| 20260504210005 | 80 | 262 | 2.6 | 13.0 | 0.00 | 0.00 | 0.00 | 35 | 998.4 |
| 20260504205505 | 80 | 248 | 3.5 | 13.0 | 0.00 | 0.00 | 0.00 | 36 | 998.6 |
| 20260504205007 | 80 | 237 | 3.5 | 9.6 | 0.00 | 0.00 | 0.00 | 37 | 998.4 |
| 20260504204505 | 79 | 244 | 2.6 | 10.4 | 0.00 | 0.00 | 0.00 | 37 | 998.6 |
| 20260504204005 | 78 | 286 | 2.6 | 7.8 | 0.00 | 0.00 | 0.00 | 36 | 998.6 |
| 20260504203504 | 78 | 232 | 2.6 | 7.8 | 0.00 | 0.00 | 0.00 | 35 | 998.6 |
| 20260504203006 | 79 | 264 | 2.6 | 7.8 | 0.00 | 0.00 | 0.00 | 34 | 998.6 |
| 20260504202008 | 81 | 310 | 2.6 | 8.7 | 0.00 | 0.00 | 0.00 | 37 | 998.7 |
| 20260504201507 | 81 | 174 | 1.7 | 8.7 | 0.00 | 0.00 | 0.00 | 36 | 998.7 |
| 20260504201010 | 80 | 245 | 1.7 | 7.0 | 0.00 | 0.00 | 0.00 | 38 | 999.1 |
| 20260504200507 | 80 | 170 | 2.6 | 8.7 | 0.00 | 0.00 | 0.00 | 37 | 999.1 |
| 20260504200012 | 79 | 217 | 2.6 | 8.7 | 0.00 | 0.00 | 0.00 | 38 | 999.2 |
| 20260504195505 | 79 | 242 | 1.7 | 7.8 | 0.00 | 0.00 | 0.00 | 36 | 999.3 |
| 20260504195009 | 79 | 198 | 1.7 | 7.8 | 0.00 | 0.00 | 0.00 | 40 | 999.3 |
| 20260504194508 | 78 | 244 | 2.6 | 7.8 | 0.00 | 0.00 | 0.00 | 41 | 999.3 |
| 20260504194005 | 77 | 227 | 2.6 | 7.8 | 0.00 | 0.00 | 0.00 | 37 | 999.5 |
| 20260504193507 | 78 | 195 | 2.6 | 7.8 | 0.00 | 0.00 | 0.00 | 37 | 999.5 |
| 20260504193009 | 78 | 255 | 2.6 | 9.6 | 0.00 | 0.00 | 0.00 | 37 | 999.6 |
| 20260504192507 | 77 | 184 | 3.5 | 9.6 | 0.00 | 0.00 | 0.00 | 35 | 999.6 |
| 20260504192007 | 78 | 203 | 3.5 | 11.3 | 0.00 | 0.00 | 0.00 | 35 | 999.8 |
| 20260504191506 | 78 | 270 | 2.6 | 11.3 | 0.00 | 0.00 | 0.00 | 36 | 999.7 |
| 20260504191010 | 78 | 203 | 2.6 | 7.8 | 0.00 | 0.00 | 0.00 | 33 | 999.7 |
| 20260504190506 | 78 | 252 | 3.5 | 15.6 | 0.00 | 0.00 | 0.00 | 34 | 999.8 |
| 20260504190010 | 78 | 188 | 2.6 | 15.6 | 0.00 | 0.00 | 0.00 | 33 | 999.9 |
| 20260504185505 | 78 | 267 | 2.6 | 9.6 | 0.00 | 0.00 | 0.00 | 33 | 1000.0 |
| 20260504185006 | 77 | 185 | 3.5 | 8.7 | 0.00 | 0.00 | 0.00 | 33 | 999.8 |
| 20260504184506 | 77 | 245 | 2.6 | 8.7 | 0.00 | 0.00 | 0.00 | 32 | 999.9 |
| 20260504184008 | 78 | 198 | 2.6 | 7.8 | 0.00 | 0.00 | 0.00 | 33 | 999.8 |
| 20260504183506 | 78 | 261 | 1.7 | 6.1 | 0.00 | 0.00 | 0.00 | 36 | 999.7 |
| 20260504183006 | 77 | 210 | 1.7 | 6.1 | 0.00 | 0.00 | 0.00 | 34 | 999.8 |
| 20260504182507 | 77 | 93 | 1.7 | 7.8 | 0.00 | 0.00 | 0.00 | 35 | 999.9 |
| 20260504182007 | 77 | 277 | 1.7 | 7.8 | 0.00 | 0.00 | 0.00 | 37 | 1000.0 |
| 20260504181506 | 76 | 263 | 1.7 | 6.1 | 0.00 | 0.00 | 0.00 | 35 | 1000.1 |
| 20260504181008 | 76 | 264 | 1.7 | 7.0 | 0.00 | 0.00 | 0.00 | 36 | 1000.3 |
| 20260504180507 | 76 | 207 | 1.7 | 7.0 | 0.00 | 0.00 | 0.00 | 36 | 1000.4 |
| 20260504180008 | 75 | 203 | 2.6 | 10.4 | 0.00 | 0.00 | 0.00 | 39 | 1000.4 |
| 20260504175505 | 75 | 253 | 2.6 | 7.8 | 0.00 | 0.00 | 0.00 | 37 | 1000.5 |
| 20260504174506 | 75 | 202 | 1.7 | 7.8 | 0.00 | 0.00 | 0.00 | 37 | 1000.6 |
| 20260504174007 | 75 | 212 | 2.6 | 7.8 | 0.00 | 0.00 | 0.00 | 37 | 1000.7 |
| 20260504173006 | 75 | 202 | 1.7 | 7.0 | 0.00 | 0.00 | 0.00 | 38 | 1000.8 |
| 20260504172506 | 75 | 246 | 1.7 | 7.0 | 0.00 | 0.00 | 0.00 | 38 | 1000.8 |
| 20260504171005 | 74 | 209 | 1.7 | 6.1 | 0.00 | 0.00 | 0.00 | 39 | 1001.1 |
| 20260504170506 | 74 | 229 | 1.7 | 7.0 | 0.00 | 0.00 | 0.00 | 41 | 1001.1 |
| 20260504151015 | 69 | 208 | 1.7 | 6.1 | 0.00 | 0.00 | 0.00 | 46 | 1002.5 |
| 20260504150505 | 68 | 232 | 0.9 | 6.1 | 0.00 | 0.00 | 0.00 | 47 | 1002.4 |
| 20260504141005 | 62 | 195 | 0.9 | 3.5 | 0.00 | 0.00 | 0.00 | 57 | 1003.0 |
| 20260504140506 | 62 | 210 | 0.9 | 3.5 | 0.00 | 0.00 | 0.00 | 59 | 1003.1 |
| 20260504130505 | 55 | 223 | 0.9 | 4.3 | 0.00 | 0.00 | 0.00 | 69 | 1003.7 |
| 20260504110505 | 48 | 216 | 0.0 | 0.9 | 0.00 | 0.00 | 0.00 | 81 | 1003.8 |
| 20260504100504 | 48 | 231 | 0.0 | 0.9 | 0.00 | 0.00 | 0.00 | 79 | 1003.8 |
| 20260504082006 | 50 | 231 | 0.0 | 0.0 | 0.00 | 0.00 | 0.00 | 75 | 1004.0 |
| 20260504081506 | 50 | 231 | 0.0 | 0.0 | 0.00 | 0.00 | 0.00 | 75 | 1003.8 |
| 20260504081006 | 50 | 231 | 0.0 | 0.0 | 0.00 | 0.00 | 0.00 | 75 | 1003.8 |
| 20260504080504 | 50 | 231 | 0.0 | 0.0 | 0.00 | 0.00 | 0.00 | 74 | 1003.8 |
| 20260504050504 | 56 | 221 | 0.9 | 5.2 | 0.00 | 0.00 | 0.00 | 66 | 1005.5 |
| 20260504045507 | 57 | 227 | 0.0 | 3.5 | 0.00 | 0.00 | 0.00 | 66 | 1005.6 |
| 20260504045006 | 57 | 259 | 0.9 | 4.3 | 0.00 | 0.00 | 0.00 | 65 | 1005.5 |
| 20260504044505 | 57 | 215 | 0.9 | 4.3 | 0.00 | 0.00 | 0.00 | 65 | 1005.5 |
| 20260504044005 | 57 | 214 | 0.9 | 7.0 | 0.00 | 0.00 | 0.00 | 65 | 1005.5 |
| 20260504043505 | 57 | 230 | 0.9 | 7.0 | 0.00 | 0.00 | 0.00 | 65 | 1005.5 |
| 20260504042006 | 57 | 241 | 0.9 | 3.5 | 0.00 | 0.00 | 0.00 | 64 | 1005.6 |